Location: NJAA Observatory
(40.6819°N, 74.8979°W)
Time: 04:42:37
(UTC-04:00)

Cosmos 2237 Rocket - Visible Passes

Search period start: 25 May 2017 00:00
Search period end: 04 June 2017 00:00
Orbit: 835 x 850 km, 71.0° (Epoch: 24 May)

Date Brightness Start Highest point End Pass type
(mag) Time Alt. Az. Time Alt. Az. Time Alt. Az.
25 May 4.1 02:04:29 10° N 02:09:11 26° NE 02:13:51 10° ESE visible
25 May 2.4 03:48:06 10° NW 03:53:27 46° WSW 03:57:43 16° S visible
26 May 4.1 01:49:41 10° N 01:54:19 25° NE 01:58:54 10° ESE visible
26 May 2.4 03:33:13 10° NW 03:38:37 48° WSW 03:41:43 24° S visible
27 May 4.1 01:34:55 10° N 01:39:27 24° NE 01:43:57 10° ESE visible
27 May 2.3 03:18:21 10° NNW 03:23:47 51° WSW 03:26:02 32° SSW visible
28 May 4.2 01:20:07 10° N 01:24:34 23° NE 01:28:48 11° ESE visible
28 May 2.3 03:03:29 10° NNW 03:08:57 54° WSW 03:10:34 40° SSW visible
29 May 4.2 01:05:20 10° N 01:09:41 22° NE 01:13:29 12° E visible
29 May 2.2 02:48:37 10° NNW 02:54:07 57° WSW 02:55:15 48° SSW visible
30 May 4.2 00:50:33 10° N 00:54:48 21° NE 00:58:16 13° E visible
30 May 2.2 02:33:45 10° NNW 02:39:17 60° WSW 02:40:03 54° SW visible
31 May 4.2 00:35:47 10° N 00:39:56 20° NE 00:43:10 13° E visible
31 May 2.1 02:18:53 10° NNW 02:24:27 63° WSW 02:24:57 60° SW visible
01 Jun 4.3 00:21:00 10° N 00:25:02 20° NE 00:28:08 13° E visible
01 Jun 2.1 02:04:01 10° NNW 02:09:36 66° WSW 02:09:55 65° SW visible
02 Jun 4.3 00:06:14 10° N 00:10:09 19° NE 00:13:10 13° E visible
02 Jun 2.0 01:49:10 10° NNW 01:54:46 70° WSW 01:54:58 69° SW visible
02 Jun 4.3 23:51:28 10° N 23:55:16 18° NE 23:58:16 12° E visible
03 Jun 2.0 01:34:19 10° NNW 01:39:56 73° WSW 01:40:04 73° SW visible
03 Jun 4.3 23:36:43 10° N 23:40:22 17° NE 23:43:25 12° E visible
